COSMOS 1275 DEB, 13815

Orbit data source: Space-Track

COSMOS 1275 DEB, 13815 is space debris in LEO originally from a launch on Thu, 04 Jun 1981 UTC launched from the Plesetsk Missile And Space Complex (PKMTR). Debris objects in space refer to the collection of defunct objects orbiting the Earth. Examples of debris include non-operational satellites, rocket bodies, and fragments generated from explosions, collisions, or faulty payload assembly.

Loading next visibility...
Identifier
13815, 1981-053HK
Orbit
LEO
Country
Flag of CISCIS
Related business
Manufacturer
Unknown
Mission
Spacecraft
Bus & Motor
Unknown
Mass
Unknown
Launch date (UTC)
1981-06-04 (44 years ago)
Launch vehicle
Unknown
Launch site
Plesetsk Missile And Space Complex (PKMTR)
Object type
Payload
Rocket body
Debris
Shape & HBR
Unknown shape, 0.1 m
Radar Cross Section
Small (<0.1 m²)

Expand to show TLE details & history
Last TLE update: 20 hours ago

TLE from 20 hours ago
0 COSMOS 1275 DEB
1 13815U 81053HK  25286.38068750  .00002334  00000-0  20755-2 0  9998
2 13815  83.0240  56.0542 0108941  48.7338   5.8943 13.81664007135391
Epoch: 2025-10-13T09:08Z
TLE epoch observation values (Epoch: 2025-10-13T09:08:11.400Z)
Latitude
54.26108°
Longitude
-93.43968°
Altitude
887.423 km
Speed
7.454 km/s
True Right ascension
04h 23m 10s
True Declination
54° 06' 03"
Sunlit
Object was in full shadow at epoch
Visualization orbit readout
Latitude
Unknown
Longitude
Unknown
Altitude
Unknown
Speed
Unknown
Apparent Right ascension
Unknown
Apparent Declination
Unknown
Sunlit
N/A
Visualization observer readout
Local Sidereal Time
23:46:24
Azimuth
Unknown
Elevation
Unknown
Doppler factor
Unknown
Orbital elements
Apogee altitude
1,035.016 km
Perigee altitude
875.237 km
Semi-major axis
7,333.264 km
Eccentricity
0.01089
Inclination
83.024°
RAAN
56.0542°
Arg. of periapsis
48.7338°
True anomaly
6.02426°
Mean anomaly
5.8943°
Eccentric anomaly
5.9591°
Mean motion
3.45619 °/min
Orbital period
104.16 mins
BSTAR
0.0020755
Loading maneuver chart data...
Computing Atmospheric mass density...
Loading historical data...
Loading historical data...
Loading historical data...
Loading historical data...
Loading historical data...
Loading historical data...
Loading historical data...

Documentation

Showing up to 5 results
|